Content
SEND FEEDBACK

Daily
Averages
Monthly
Summary
United States of America

NEW YORK - CENTRAL PARK, NEW YORK


Home > North America > United States > New York
Elevation: 14 feet     Latitude: 40 47N     Longitude: 073 58W

WEATHER
 
SELECT A DAY
Number of Records: 148,218;   Date Range: 11/1/95 - 8/30/14
 
SHARE

PRINT THIS DATA

[ ← Previous Day ]
WEATHER ALMANAC - JANUARY 2, 2013
[ Next Day → ]
[ °C ]   °F
Weather ElementAverageHighLow
Temperature27.6 °F32 °F (2:51 pm)21.9 °F (5:51 am)
Dewpoint11.2 °F15.1 °F (10:51 pm)9 °F (3:51 am)
Humidity50.6 %58 % (5:51 am)42 % (2:51 pm)
Barometer30.07 in30.17 in (11:51 pm)30.01 in (1:51 am)
Wind Speed5.6 mph10.4 mph (3:51 am)
Wind Gust21.9 mph (1:51 pm)
Weather ElementAverage
Visibility10 mi
Wind DirectionENE (80.9 °)

Weather ElementTotal
Precipitation---
Heating Degree Days38.1 (Base 65)
Averaged from 22 records on January 2, 2013
WEATHER CONDITIONS BREAKOUT
WIND DIRECTION BREAKOUT
WEATHER BY HOUR - JANUARY 2, 2013
[ °C ]   °F
Local TimeTemperatureDewpointHumidityBarometerVisibilityWind DirectionWind SpeedGust SpeedPrecipitationEventsConditions
1:51 AM26.1 °F10.0 °F51 %30.01 in10.0 miNW (310°)9.2 mphClear
3:51 AM23.0 °F9.0 °F55 %30.01 in10.0 miWNW (300°)10.4 mphClear
4:51 AM23.0 °F9.0 °F55 %30.02 in10.0 miNorthClear
5:51 AM21.9 °F9.0 °F58 %30.01 in10.0 miCalmClear
6:51 AM21.9 °F9.0 °F58 %30.02 in10.0 miVariable3.5 mphClear
7:51 AM23.0 °F9.0 °F55 %30.04 in10.0 miVariable3.5 mphClear
8:51 AM24.1 °F10.0 °F55 %30.06 in10.0 miVariable4.6 mphClear
9:51 AM25.0 °F9.0 °F51 %30.07 in10.0 miVariable5.8 mphClear
10:51 AM26.1 °F10.0 °F51 %30.06 in10.0 miWest (280°)9.2 mphClear
11:51 AM28.0 °F10.9 °F49 %30.03 in10.0 miVariable4.6 mphClear
12:51 PM30.0 °F10.9 °F45 %30.01 in10.0 miCalmClear
1:51 PM30.9 °F10.9 °F43 %30.03 in10.0 miWNW (290°)8.1 mph21.9 mphClear
2:51 PM32.0 °F10.9 °F42 %30.04 in10.0 miNorthClear
3:51 PM30.9 °F10.9 °F43 %30.06 in10.0 miWNW (300°)9.2 mph18.4 mphClear
4:51 PM30.9 °F12.0 °F46 %30.07 in10.0 miVariable6.9 mph17.3 mphClear
5:51 PM30.9 °F12.0 °F46 %30.10 in10.0 miVariable3.5 mph17.3 mphClear
6:51 PM30.0 °F12.9 °F49 %30.12 in10.0 miVariable5.8 mphClear
7:51 PM30.0 °F12.9 °F49 %30.12 in10.0 miNorthClear
8:51 PM30.0 °F14.0 °F51 %30.13 in10.0 miVariable4.6 mphClear
9:51 PM30.0 °F14.0 °F51 %30.14 in10.0 miWNW (300°)5.8 mphClear
10:51 PM30.0 °F15.1 °F54 %30.16 in10.0 miVariable4.6 mphClear
11:51 PM28.9 °F15.1 °F56 %30.17 in10.0 miVariable6.9 mphClear
Hourly data recorded from KNYC, located miles away from New York - Central Park, New York







STORIES FROM OUR PARTNERS